SCP
0 0 0 0 0 0 0 0 0 0 0 0 0 0 0 0 0 0 0 0 0 0 0 0 0 0 0 0 0 0 0 0 0 0 0 0 0 0 0 0 0 0 0
0 0 0 0 0 0 0 0 0 0 0 0 0 0 0 0 0 0 0 0 0 0 0 0 0 0 0 0 0 0 0 0 0 0 0 0 0 0 0 0 0 0 0
0 0 0 0 0 0 0 0 0 0 0 0 0 0 0 0 0 0 0 0 0 0 0 0 0 0 0 0 0 0 0 0 0 0 0 0 0 0 0 0 0 0 0
0 0 0 0 0 0 0 0 0 0 0 0 0 0 0 0 0 0 0 0 0 0 0 0 0 0 0 0 0 0 0 0 0 0 0 0 0 0 0 0 0 0 0
0 0 0 0 0 0 0 0 0 0 0 0 0 0 0 0 0 0 0 0 0 0 0 0 0 0 0 0 0 0 0 0 0 0 0 0 0 0 0 0 0 0 0
0 0 0 0 0 0 0 0 0 0 0 0 0 0 0 0 0 0 0 0 0 0 0 0 0 0 0 0 0 0 0 0 0 0 0 0 0 0 0 0 0 0 0
0 0 0 0 0 0 0 0 0 0 0 0 0 0 0 0 0 0 0 0 0 0 0 0 0 0 0 0 0 0 0 0 0 0 0 0 0 0 0 0 0 0 0
0 0 0 0 0 0 0 0 0 0 0 0 0 0 0 0 0 0 0 0 0 0 0 0 0 0 0 0 0 0 0 0 0 0 0 0 0 0 0 0 0 0 0
0 0 0 0 0 0 0 0 0 0 0 0 0 0 0 0 0 0 0 0 0 0 0 0 0 0 0 0 0 0 0 0 0 0 0 0 0 0 0 0 0 0 0
0 0 0 0 0 0 0 0 0 0 0 0 0 0 0 0 0 0 0 0 0 0 0 0 0 0 0 0 0 0 0 0 0 0 0 0 0 0 0 0 0 0 0
0 0 0 0 0 0 0 0 0 0 0 0 0 0 0 0 0 0 0 0 0 0 0 0 0 0 0 0 0 0 0 0 0 0 0 0 0 0 0 0 0 0 0
0 0 0 0 0 0 0 0 0 0 0 0 0 0 0 0 0 0 0 0 0 0 0 0 0 0 0 0 0 0 0 0 0 0 0 0 0 0 0 0 0 0 0
0 0 0 0 0 0 0 0 0 0 0 0 0 0 0 0 0 0 0 0 0 0 0 0 0 0 0 0 0 0 0 0 0 0 0 0 0 0 0 0 0 0 0
0 0 0 0 0 0 0 0 0 0 0 0 0 0 0 0 0 0 0 0 0 0 0 0 0 0 0 0 0 0 0 0 0 0 0 0 0 0 0 0 0 0 0
0 0 0 0 0 0 0 0 0 0 0 0 0 0 0 0 0 0 0 0 0 0 0 0 0 0 0 0 0 0 0 0 0 0 0 0 0 0 0 0 0 0 0
0 0 0 0 0 0 0 0 0 0 0 0 0 0 0 0 0 0 0 0 0 0 0 0 0 0 0 0 0 0 0 0 0 0 0 0 0 0 0 0 0 0 0
0 0 0 0 0 0 0 0 0 0 0 0 0 0 0 0 0 0 0 0 0 0 0 0 0 0 0 0 0 0 0 0 0 0 0 0 0 0 0 0 0 0 0
0 0 0 0 0 0 0 0 0 0 0 0 0 0 0 0 0 0 0 0 0 0 0 0 0 0 0 0 0 0 0 0 0 0 0 0 0 0 0 0 0 0 0
0 0 0 0 0 0 0 0 0 0 0 0 0 0 0 0 0 0 0 0 0 0 0 0 0 0 0 0 0 0 0 0 0 0 0 0 0 0 0 0 0 0 0
0 0 0 0 0 0 0 0 0 0 0 0 0 0 0 0 0 0 0 0 0 0 0 0 0 0 0 0 0 0 0 0 0 0 0 0 0 0 0 0 0 0 0
0 0 0 0 0 0 0 0 0 0 0 0 0 0 0 0 0 0 0 0 0 0 0 0 0 0 0 0 0 0 0 0 0 0 0 0 0 0 0 0 0 0 0
0 0 0 0 0 0 0 0 0 0 0 0 0 0 0 0 0 0 0 0 0 0 0 0 0 0 0 0 0 0 0 0 0 0 0 0 0 0 0 0 0 0 0
0 0 0 0 0 0 0 0 0 0 0 0 0 0 0 0 0 0 0 0 0 0 0 0 0 0 0 0 0 0 0 0 0 0 0 0 0 0 0 0 0 0 0
0 0 0 0 0 0 0 0 0 0 0 0 0 0 0 0 0 0 0 0 0 0 0 0 0 0 0 0 0 0 0 0 0 0 0 0 0 0 0 0 0 0 0
0 0 0 0 0 0 0 0 0 0 0 0 0 0 0 0 0 0 0 0 0 0 0 0 0 0 0 0 0 0 0 0 0 0 0 0 0 0 0 0 0 0 0
0 0 0 0 0 0 0 0 0 0 0 0 0 0 0 0 0 0 0 0 0 0 0 0 0 0 0 0 0 0 0 0 0 0 0 0 0 0 0 0 0 0 0
Wind_Speed
5 5 4 4 4 3 4 4 4 4 3 3 3 4 3 3 3 2 1 2 3 5 7 8 7 7 7 7 6 6 5 6 6 5 6 7 7 8 8 9 9 8 8
6 6 5 5 4 4 4 4 4 4 3 2 3 4 4 3 3 3 2 1 2 2 5 8 9 9 8 8 7 7 7 7 5 4 4 5 5 6 7 6 6 6 6
7 6 6 6 6 5 5 3 3 2 2 2 3 3 3 3 3 4 3 1 1 3 2 4 7 9 9 8 8 8 7 6 5 4 3 3 4 4 4 4 4 4 4
7 6 5 6 6 6 5 4 3 3 2 2 2 2 2 3 4 4 3 3 1 1 2 2 1 6 9 9 9 8 7 6 5 5 4 3 4 4 3 3 3 3 3
6 5 5 5 6 5 5 5 3 3 3 3 2 2 2 3 3 3 4 4 3 2 0 1 2 1 6 10 9 9 8 7 7 6 5 5 5 4 4 4 3 3 3
3 4 3 5 5 4 5 5 4 3 2 3 1 2 3 4 3 4 4 3 3 4 3 2 0 1 3 9 11 11 10 10 9 8 8 7 6 5 5 5 4 4 4
3 2 1 3 4 5 6 7 4 4 2 3 2 2 3 4 5 4 4 4 5 5 4 4 3 2 2 9 12 13 13 13 11 10 9 9 8 7 7 6 6 6 5
6 4 3 1 1 2 3 4 4 3 3 4 4 1 3 4 5 5 4 5 5 4 5 6 5 5 4 3 7 14 15 15 14 13 11 10 10 9 9 9 8 7 7
9 7 6 3 1 0 2 4 4 6 4 4 3 4 4 6 4 3 5 5 5 5 5 5 6 6 6 4 4 11 14 15 15 15 13 12 12 11 11 10 9 9 8
11 10 8 6 3 2 2 2 3 3 4 4 4 3 3 2 2 5 4 3 5 6 6 6 6 7 7 5 7 10 10 12 14 15 15 14 13 13 13 12 11 10 10
12 12 10 8 6 3 3 3 2 4 4 4 5 4 4 3 3 3 5 4 4 6 7 7 6 6 7 7 6 9 13 13 13 14 15 15 15 14 14 13 13 12 11
8 13 11 9 7 5 5 4 3 4 4 5 5 5 4 4 4 5 6 5 5 5 5 5 7 7 7 7 10 15 17 18 17 17 17 16 16 16 16 15 14 14 13
6 10 10 9 8 7 6 5 4 4 4 5 6 6 6 7 4 4 4 4 5 4 4 4 7 6 7 6 8 17 18 21 21 20 19 18 18 17 17 16 16 15 14
6 8 9 9 9 9 8 6 4 5 4 5 7 7 6 6 6 6 5 4 6 5 4 6 4 7 8 8 12 20 14 22 23 22 21 21 20 19 18 18 17 16 15
6 8 8 9 9 9 8 7 5 6 5 5 6 7 6 5 5 6 6 6 7 10 9 6 6 6 9 7 14 12 10 21 24 23 23 22 21 21 20 19 19 18 17
7 8 9 9 9 9 8 8 7 6 6 6 5 6 7 6 5 5 6 7 7 9 12 5 8 7 8 9 16 11 12 21 23 24 24 23 23 23 22 21 20 19 19
6 7 8 8 9 8 8 8 8 8 8 8 7 7 8 8 6 5 5 6 7 7 14 8 5 5 7 8 9 9 9 12 12 24 25 25 24 24 23 23 22 21 20
6 7 7 8 9 9 8 8 9 9 9 10 9 9 9 7 8 7 6 7 8 8 10 13 7 5 9 9 10 11 9 10 9 20 26 26 25 25 24 24 23 22 21
7 7 7 8 9 10 10 10 9 10 9 10 10 10 10 9 10 8 8 8 7 8 9 10 10 6 7 5 7 7 7 6 8 14 23 26 26 26 26 26 25 23 21
7 8 8 8 9 10 11 12 12 11 11 11 11 11 11 11 11 11 9 10 9 9 9 10 9 6 6 4 5 6 6 8 9 9 16 19 22 25 27 27 25 22 22
8 8 9 10 10 9 10 11 11 12 13 14 14 12 13 15 18 16 12 10 9 9 9 10 10 7 7 6 7 5 10 8 10 9 9 9 10 11 16 23 24 23 25
9 10 11 11 13 12 20 25 22 14 14 16 17 16 14 14 19 25 27 25 20 15 12 12 11 12 11 10 7 8 9 8 10 8 9 11 10 13 12 11 22 28 28
12 14 14 13 16 18 27 28 28 20 17 17 17 17 16 15 15 14 20 26 24 26 27 18 17 17 12 9 11 12 11 12 10 7 10 13 12 16 11 15 28 30 30
13 15 16 16 18 20 28 29 30 22 19 19 19 19 20 20 17 19 16 16 17 18 20 16 17 17 13 9 12 15 15 14 8 7 13 10 10 13 10 11 26 31 31
13 14 15 14 15 18 26 29 30 16 16 20 20 20 20 21 27 32 24 19 20 19 23 28 29 26 27 24 15 9 10 10 12 10 9 8 5 6 7 10 15 28 30
13 14 15 14 15 16 24 29 28 13 14 16 16 18 22 26 29 32 22 19 21 20 15 14 18 22 20 20 24 17 14 14 9 9 11 9 5 6 5 6 9 11 17
Wind_Direction
178 171 172 171 174 165 164 161 163 173 184 185 182 173 168 169 177 185 267 290 272 255 229 206 197 190 187 179 168 162 143 118 93 77 72 67 69 68 63 60 58 59 62
178 173 171 172 176 177 173 170 174 179 193 194 194 185 182 182 184 185 204 325 357 308 238 215 202 195 188 178 175 169 150 131 110 89 81 75 72 68 65 61 59 59 61
182 175 175 177 179 173 166 158 164 162 191 210 211 200 193 197 192 187 190 198 339 11 13 218 208 200 187 180 174 164 157 148 142 139 130 120 110 102 95 90 83 76 76
182 173 175 182 175 167 165 165 163 171 206 223 232 235 221 213 205 194 185 186 186 9 18 64 173 195 190 187 181 176 171 170 172 171 164 170 159 143 133 127 124 120 115
179 174 178 176 167 169 171 171 163 166 188 215 237 262 265 247 228 208 191 186 187 182 174 60 53 127 191 190 190 189 191 193 191 188 189 188 177 169 166 172 170 162 152
173 166 165 164 161 164 169 172 164 165 167 170 196 276 285 273 260 236 211 193 193 193 194 203 248 285 214 198 201 204 206 205 198 196 198 196 189 187 188 192 194 194 190
61 102 130 155 166 180 187 181 154 165 158 131 112 315 302 276 260 247 228 209 205 200 196 203 213 229 243 217 213 216 217 212 202 202 202 201 198 200 201 203 206 206 206
35 46 60 95 182 181 172 173 160 156 171 162 148 153 285 295 259 236 229 221 214 202 206 206 207 215 222 226 230 224 225 217 205 204 205 206 207 208 209 208 208 208 208
25 28 31 34 26 193 208 203 193 180 190 199 183 169 195 247 288 274 240 230 218 213 214 209 211 214 214 215 227 231 229 222 210 206 208 210 212 213 213 209 207 206 206
22 20 19 21 19 356 304 253 227 222 198 206 220 223 208 208 256 303 300 264 238 230 222 217 214 214 210 210 217 221 221 218 208 206 209 213 216 217 215 211 207 205 203
20 16 12 9 7 355 329 304 271 244 232 226 213 211 216 210 193 226 282 297 279 243 227 221 216 215 211 206 209 216 211 209 203 204 209 214 218 220 217 212 207 204 202
14 13 8 6 1 354 338 318 294 267 253 251 245 229 221 219 209 207 239 248 256 264 241 225 223 222 214 207 210 213 212 211 208 207 210 214 219 221 219 215 210 206 203
8 2 2 1 359 351 342 332 316 296 273 261 255 251 243 240 224 219 235 253 258 270 274 245 229 222 218 210 213 212 214 215 214 212 212 214 217 220 220 217 213 209 205
356 355 357 358 357 355 352 345 327 307 294 280 274 268 261 252 238 235 235 240 265 271 258 255 251 224 222 213 217 214 217 218 218 217 215 214 215 217 218 219 215 211 208
353 354 355 355 352 351 350 347 336 320 307 287 277 274 271 265 252 247 241 227 241 264 262 226 237 230 223 215 219 215 211 219 219 219 217 214 213 214 215 217 217 213 209
349 348 349 347 343 342 344 344 334 327 321 304 286 277 273 267 259 248 245 242 236 251 267 230 227 228 219 219 220 216 215 218 221 221 219 216 215 214 214 215 216 214 211
339 339 336 334 332 329 332 330 323 321 318 310 303 291 281 273 267 256 245 245 245 241 263 265 236 226 216 220 221 214 210 210 218 220 220 218 217 216 214 214 215 215 213
320 320 321 321 320 320 318 315 311 309 305 303 300 296 289 284 274 266 254 247 246 239 254 268 256 229 224 218 219 215 211 211 213 221 222 222 220 218 216 215 214 214 213
299 300 299 301 304 307 308 306 300 296 291 287 287 286 285 282 279 273 264 259 253 248 244 257 260 235 229 215 216 219 209 206 209 222 225 225 223 221 219 217 214 213 211
286 286 284 282 284 288 293 295 296 294 290 286 280 276 275 271 271 271 270 266 260 255 250 254 255 235 224 211 205 206 208 206 215 214 226 227 226 224 222 220 216 211 209
287 285 287 285 283 283 284 287 290 289 289 289 285 277 271 267 265 269 267 264 258 260 257 255 255 235 220 203 213 194 214 207 220 209 215 221 219 219 217 221 216 210 208
306 301 296 294 291 290 295 298 298 293 288 285 285 284 279 271 270 273 272 269 262 257 254 253 256 248 238 218 208 204 208 201 225 197 199 223 215 222 217 214 216 211 209
312 307 302 300 297 296 300 301 300 298 289 284 282 282 280 276 272 270 272 272 270 264 258 252 252 251 246 220 211 214 210 213 219 168 185 224 213 225 215 216 216 214 209
308 305 304 302 299 299 305 306 305 299 289 283 280 279 279 278 275 276 272 266 260 258 257 256 254 255 247 230 217 218 216 223 223 191 185 214 207 217 213 213 220 216 212
304 301 298 299 300 303 307 305 301 293 286 284 283 280 278 276 276 277 274 269 266 263 262 257 252 254 254 249 231 218 216 213 226 214 193 211 205 195 201 211 218 220 217
296 298 297 298 296 295 298 300 299 290 286 286 285 283 281 280 279 278 271 265 262 261 258 256 255 257 256 253 244 226 217 219 220 216 193 194 182 160 201 208 201 210 217